Time,TemperatureF,DewpointF,PressureIn,WindDirection,WindDirectionDegrees,WindSpeedMPH,WindSpeedGustMPH,Humidity,HourlyPrecipIn,Conditions,Clouds,dailyrainin,SoftwareType,DateUTC
2013-07-25 00:10:00,68.1,55.0,29.90,ENE,63,3.0,-999.0,64,-99.99,,,0.00,weatherlink.com 1.10,2013-07-25 04:10:00,
2013-07-25 00:25:00,67.2,55.0,29.90,NNW,327,0.0,-999.0,64,-99.99,,,0.00,weatherlink.com 1.10,2013-07-25 04:25:00,
2013-07-25 00:40:00,66.5,53.0,29.91,WNW,292,1.0,-999.0,62,-99.99,,,0.00,weatherlink.com 1.10,2013-07-25 04:40:00,
2013-07-25 00:55:00,65.8,53.0,29.91,NW,324,2.0,-999.0,63,-99.99,,,0.00,weatherlink.com 1.10,2013-07-25 04:55:00,
2013-07-25 01:10:00,65.3,53.0,29.91,NE,46,1.0,-999.0,65,-99.99,,,0.00,weatherlink.com 1.10,2013-07-25 05:10:00,
2013-07-25 01:25:00,65.0,54.0,29.91,WNW,286,0.0,-999.0,67,-99.99,,,0.00,weatherlink.com 1.10,2013-07-25 05:25:00,
2013-07-25 01:40:00,64.5,52.0,29.92,NE,40,0.0,-999.0,65,-99.99,,,0.00,weatherlink.com 1.10,2013-07-25 05:40:00,
2013-07-25 01:55:00,64.0,51.0,29.93,West,273,0.0,-999.0,64,-99.99,,,0.00,weatherlink.com 1.10,2013-07-25 05:55:00,
2013-07-25 02:10:00,63.6,51.0,29.92,West,278,0.0,-999.0,64,-99.99,,,0.00,weatherlink.com 1.10,2013-07-25 06:10:00,
2013-07-25 02:25:00,63.3,51.0,29.91,West,270,0.0,-999.0,65,-99.99,,,0.00,weatherlink.com 1.10,2013-07-25 06:25:00,
2013-07-25 02:40:00,62.9,52.0,29.92,NW,315,0.0,-999.0,67,-99.99,,,0.00,weatherlink.com 1.10,2013-07-25 06:40:00,
2013-07-25 02:55:00,62.6,51.0,29.92,NW,306,0.0,-999.0,67,-99.99,,,0.00,weatherlink.com 1.10,2013-07-25 06:55:00,
2013-07-25 03:10:00,62.3,52.0,29.93,NW,304,2.0,-999.0,68,-99.99,,,0.00,weatherlink.com 1.10,2013-07-25 07:10:00,
2013-07-25 03:25:00,62.1,51.0,29.94,WNW,285,0.0,-999.0,68,-99.99,,,0.00,weatherlink.com 1.10,2013-07-25 07:25:00,
2013-07-25 03:40:00,62.0,52.0,29.93,North,360,0.0,-999.0,69,-99.99,,,0.00,weatherlink.com 1.10,2013-07-25 07:40:00,
2013-07-25 03:55:00,61.9,52.0,29.94,NW,322,2.0,-999.0,69,-99.99,,,0.00,weatherlink.com 1.10,2013-07-25 07:55:00,
2013-07-25 04:10:00,61.7,52.0,29.94,NE,46,0.0,-999.0,70,-99.99,,,0.00,weatherlink.com 1.10,2013-07-25 08:10:00,
2013-07-25 04:25:00,61.5,52.0,29.95,West,273,0.0,-999.0,70,-99.99,,,0.00,weatherlink.com 1.10,2013-07-25 08:25:00,
2013-07-25 04:40:00,61.4,52.0,29.95,West,279,0.0,-999.0,71,-99.99,,,0.00,weatherlink.com 1.10,2013-07-25 08:40:00,
2013-07-25 04:55:00,61.2,52.0,29.95,NW,322,1.0,-999.0,72,-99.99,,,0.00,weatherlink.com 1.10,2013-07-25 08:55:00,
2013-07-25 05:10:00,61.2,52.0,29.96,NW,323,0.0,-999.0,72,-99.99,,,0.00,weatherlink.com 1.10,2013-07-25 09:10:00,
2013-07-25 05:25:00,61.1,52.0,29.96,NW,323,0.0,-999.0,73,-99.99,,,0.00,weatherlink.com 1.10,2013-07-25 09:25:00,
2013-07-25 05:40:00,60.9,53.0,29.97,NW,323,0.0,-999.0,74,-99.99,,,0.00,weatherlink.com 1.10,2013-07-25 09:40:00,
2013-07-25 05:55:00,60.9,53.0,29.97,NNW,335,0.0,-999.0,74,-99.99,,,0.00,weatherlink.com 1.10,2013-07-25 09:55:00,
2013-07-25 06:10:00,61.0,53.0,29.97,North,355,0.0,-999.0,75,-99.99,,,0.00,weatherlink.com 1.10,2013-07-25 10:10:00,
2013-07-25 06:25:00,61.0,53.0,29.98,NNW,340,0.0,-999.0,76,-99.99,,,0.00,weatherlink.com 1.10,2013-07-25 10:25:00,
2013-07-25 06:40:00,61.2,54.0,29.98,NNW,340,0.0,-999.0,76,-99.99,,,0.00,weatherlink.com 1.10,2013-07-25 10:40:00,
2013-07-25 06:55:00,61.2,54.0,29.98,NNW,340,0.0,-999.0,77,-99.99,,,0.00,weatherlink.com 1.10,2013-07-25 10:55:00,
2013-07-25 07:10:00,61.3,54.0,29.98,NNW,340,0.0,-999.0,77,-99.99,,,0.00,weatherlink.com 1.10,2013-07-25 11:10:00,
2013-07-25 07:25:00,61.3,54.0,29.99,NNW,340,0.0,-999.0,78,-99.99,,,0.00,weatherlink.com 1.10,2013-07-25 11:25:00,
2013-07-25 07:40:00,61.4,54.0,30.00,NNW,340,0.0,-999.0,77,-99.99,,,0.00,weatherlink.com 1.10,2013-07-25 11:40:00,
2013-07-25 07:55:00,61.7,54.0,30.01,NNE,19,0.0,-999.0,77,-99.99,,,0.00,weatherlink.com 1.10,2013-07-25 11:55:00,
2013-07-25 08:10:00,62.0,54.0,30.02,ENE,63,0.0,-999.0,76,-99.99,,,0.00,weatherlink.com 1.10,2013-07-25 12:10:00,
2013-07-25 08:25:00,62.1,54.0,30.02,ENE,76,0.0,-999.0,76,-99.99,,,0.00,weatherlink.com 1.10,2013-07-25 12:25:00,
2013-07-25 08:40:00,62.6,55.0,30.02,NE,54,0.0,-999.0,76,-99.99,,,0.00,weatherlink.com 1.10,2013-07-25 12:40:00,
2013-07-25 08:55:00,62.9,55.0,30.02,NE,34,6.0,-999.0,75,-99.99,,,0.00,weatherlink.com 1.10,2013-07-25 12:55:00,
2013-07-25 09:10:00,63.2,55.0,30.02,ENE,73,2.0,-999.0,75,-99.99,,,0.00,weatherlink.com 1.10,2013-07-25 13:10:00,
2013-07-25 09:25:00,62.8,56.0,30.03,NW,321,0.0,-999.0,77,-99.99,,,0.00,weatherlink.com 1.10,2013-07-25 13:25:00,
2013-07-25 09:40:00,62.9,56.0,30.03,NE,52,0.0,-999.0,78,-99.99,,,0.00,weatherlink.com 1.10,2013-07-25 13:40:00,
2013-07-25 09:55:00,63.1,56.0,30.04,ENE,67,0.0,-999.0,78,-99.99,,,0.00,weatherlink.com 1.10,2013-07-25 13:55:00,
2013-07-25 10:10:00,63.1,56.0,30.04,ENE,61,0.0,-999.0,77,-99.99,,,0.00,weatherlink.com 1.10,2013-07-25 14:10:00,
2013-07-25 10:25:00,63.1,56.0,30.04,ENE,63,0.0,-999.0,77,-99.99,,,0.00,weatherlink.com 1.10,2013-07-25 14:25:00,
2013-07-25 10:40:00,62.9,56.0,30.04,ENE,63,0.0,-999.0,78,-99.99,,,0.00,weatherlink.com 1.10,2013-07-25 14:40:00,
2013-07-25 10:55:00,62.9,56.0,30.04,NE,49,0.0,-999.0,78,-99.99,,,0.00,weatherlink.com 1.10,2013-07-25 14:55:00,
2013-07-25 11:10:00,63.2,56.0,30.04,ENE,66,2.0,-999.0,78,-99.99,,,0.00,weatherlink.com 1.10,2013-07-25 15:10:00,
2013-07-25 11:25:00,63.2,56.0,30.04,ENE,67,0.0,-999.0,78,-99.99,,,0.00,weatherlink.com 1.10,2013-07-25 15:25:00,
2013-07-25 11:40:00,63.3,56.0,30.04,ENE,76,0.0,-999.0,78,-99.99,,,0.00,weatherlink.com 1.10,2013-07-25 15:40:00,
2013-07-25 11:55:00,63.6,56.0,30.05,ENE,61,3.0,-999.0,77,-99.99,,,0.00,weatherlink.com 1.10,2013-07-25 15:55:00,
2013-07-25 12:10:00,63.4,56.0,30.05,ENE,65,0.0,-999.0,78,-99.99,,,0.00,weatherlink.com 1.10,2013-07-25 16:10:00,
2013-07-25 12:25:00,63.6,57.0,30.05,ENE,64,0.0,-999.0,79,-99.99,,,0.00,weatherlink.com 1.10,2013-07-25 16:25:00,
2013-07-25 12:40:00,63.8,57.0,30.05,NE,55,0.0,-999.0,78,-99.99,,,0.00,weatherlink.com 1.10,2013-07-25 16:40:00,
2013-07-25 12:55:00,63.6,57.0,30.05,ENE,57,0.0,-999.0,79,-99.99,,,0.00,weatherlink.com 1.10,2013-07-25 16:55:00,
2013-07-25 13:10:00,63.7,57.0,30.04,ENE,70,1.0,-999.0,79,-99.99,,,0.00,weatherlink.com 1.10,2013-07-25 17:10:00,
2013-07-25 13:25:00,63.9,57.0,30.04,North,360,0.0,-999.0,79,-99.99,,,0.00,weatherlink.com 1.10,2013-07-25 17:25:00,
2013-07-25 13:40:00,64.3,57.0,30.04,NW,325,0.0,-999.0,78,-99.99,,,0.00,weatherlink.com 1.10,2013-07-25 17:40:00,
2013-07-25 13:55:00,64.3,58.0,30.04,NE,38,2.0,-999.0,79,-99.99,,,0.00,weatherlink.com 1.10,2013-07-25 17:55:00,
2013-07-25 14:10:00,64.5,58.0,30.04,NE,56,0.0,-999.0,79,-99.99,,,0.00,weatherlink.com 1.10,2013-07-25 18:10:00,
2013-07-25 14:25:00,64.6,58.0,30.04,ENE,63,0.0,-999.0,80,-99.99,,,0.00,weatherlink.com 1.10,2013-07-25 18:25:00,
2013-07-25 14:40:00,64.5,59.0,30.04,NE,49,1.0,-999.0,81,-99.99,,,0.00,weatherlink.com 1.10,2013-07-25 18:40:00,
2013-07-25 14:55:00,64.0,58.0,30.03,NE,53,1.0,-999.0,82,-99.99,,,0.00,weatherlink.com 1.10,2013-07-25 18:55:00,
2013-07-25 15:10:00,63.6,58.0,30.04,ENE,57,0.0,-999.0,82,-99.99,,,0.00,weatherlink.com 1.10,2013-07-25 19:10:00,
2013-07-25 15:25:00,63.4,58.0,30.03,ENE,57,0.0,-999.0,83,-99.99,,,0.00,weatherlink.com 1.10,2013-07-25 19:25:00,
2013-07-25 15:40:00,63.0,58.0,30.03,ENE,60,0.0,-999.0,84,-99.99,,,0.00,weatherlink.com 1.10,2013-07-25 19:40:00,
2013-07-25 15:55:00,62.8,59.0,30.03,ENE,60,0.0,-999.0,86,-99.99,,,0.00,weatherlink.com 1.10,2013-07-25 19:55:00,
2013-07-25 16:10:00,62.3,58.0,30.04,NE,45,0.0,-999.0,87,-99.99,,,0.01,weatherlink.com 1.10,2013-07-25 20:10:00,
2013-07-25 16:25:00,61.8,59.0,30.03,NE,44,0.0,-999.0,90,-99.99,,,0.05,weatherlink.com 1.10,2013-07-25 20:25:00,
2013-07-25 16:40:00,61.4,59.0,30.03,NE,44,0.0,-999.0,92,-99.99,,,0.11,weatherlink.com 1.10,2013-07-25 20:40:00,
2013-07-25 16:55:00,60.9,59.0,30.04,NE,44,0.0,-999.0,93,-99.99,,,0.15,weatherlink.com 1.10,2013-07-25 20:55:00,
2013-07-25 17:10:00,60.7,59.0,30.04,NE,44,0.0,-999.0,94,-99.99,,,0.17,weatherlink.com 1.10,2013-07-25 21:10:00,
2013-07-25 17:25:00,60.7,59.0,30.04,NE,44,0.0,-999.0,95,-99.99,,,0.18,weatherlink.com 1.10,2013-07-25 21:25:00,
2013-07-25 17:40:00,60.6,59.0,30.04,NE,44,0.0,-999.0,94,-99.99,,,0.19,weatherlink.com 1.10,2013-07-25 21:40:00,
2013-07-25 17:55:00,60.4,59.0,30.04,NE,44,0.0,-999.0,95,-99.99,,,0.21,weatherlink.com 1.10,2013-07-25 21:55:00,
2013-07-25 18:10:00,60.4,59.0,30.04,NE,44,0.0,-999.0,95,-99.99,,,0.22,weatherlink.com 1.10,2013-07-25 22:10:00,
2013-07-25 18:25:00,60.4,59.0,30.04,NE,44,0.0,-999.0,96,-99.99,,,0.22,weatherlink.com 1.10,2013-07-25 22:25:00,
2013-07-25 18:40:00,60.4,59.0,30.05,NE,44,0.0,-999.0,96,-99.99,,,0.22,weatherlink.com 1.10,2013-07-25 22:40:00,
2013-07-25 18:55:00,60.5,59.0,30.05,WNW,285,0.0,-999.0,96,-99.99,,,0.23,weatherlink.com 1.10,2013-07-25 22:55:00,
2013-07-25 19:10:00,60.4,59.0,30.04,WNW,285,0.0,-999.0,96,-99.99,,,0.23,weatherlink.com 1.10,2013-07-25 23:10:00,
2013-07-25 19:25:00,60.5,59.0,30.05,WNW,285,0.0,-999.0,96,-99.99,,,0.24,weatherlink.com 1.10,2013-07-25 23:25:00,
2013-07-25 19:40:00,60.5,59.0,30.05,WNW,285,0.0,-999.0,96,-99.99,,,0.24,weatherlink.com 1.10,2013-07-25 23:40:00,
2013-07-25 19:55:00,60.4,59.0,30.04,WNW,285,0.0,-999.0,96,-99.99,,,0.24,weatherlink.com 1.10,2013-07-25 23:55:00,
2013-07-25 20:10:00,60.3,60.0,30.04,WNW,285,0.0,-999.0,97,-99.99,,,0.24,weatherlink.com 1.10,2013-07-26 00:10:00,
2013-07-25 20:25:00,60.3,60.0,30.03,North,5,0.0,-999.0,97,-99.99,,,0.24,weatherlink.com 1.10,2013-07-26 00:25:00,
2013-07-25 20:40:00,60.2,59.0,30.03,NNW,342,0.0,-999.0,97,-99.99,,,0.24,weatherlink.com 1.10,2013-07-26 00:40:00,
2013-07-25 20:55:00,60.2,59.0,30.03,NNW,344,0.0,-999.0,97,-99.99,,,0.24,weatherlink.com 1.10,2013-07-26 00:55:00,
2013-07-25 21:10:00,60.2,59.0,30.03,NNW,342,0.0,-999.0,97,-99.99,,,0.24,weatherlink.com 1.10,2013-07-26 01:10:00,
2013-07-25 21:25:00,60.2,59.0,30.03,NW,306,0.0,-999.0,97,-99.99,,,0.24,weatherlink.com 1.10,2013-07-26 01:25:00,
2013-07-25 21:40:00,60.1,59.0,30.03,NW,306,0.0,-999.0,97,-99.99,,,0.24,weatherlink.com 1.10,2013-07-26 01:40:00,
2013-07-25 21:55:00,60.1,59.0,30.03,NW,306,0.0,-999.0,97,-99.99,,,0.24,weatherlink.com 1.10,2013-07-26 01:55:00,
2013-07-25 22:10:00,60.1,59.0,30.03,NW,306,0.0,-999.0,97,-99.99,,,0.24,weatherlink.com 1.10,2013-07-26 02:10:00,
2013-07-25 22:25:00,60.1,59.0,30.03,NW,306,0.0,-999.0,97,-99.99,,,0.24,weatherlink.com 1.10,2013-07-26 02:25:00,
2013-07-25 22:40:00,60.2,60.0,30.02,WNW,303,0.0,-999.0,98,-99.99,,,0.24,weatherlink.com 1.10,2013-07-26 02:40:00,
2013-07-25 22:55:00,60.2,60.0,30.02,NNW,332,0.0,-999.0,98,-99.99,,,0.24,weatherlink.com 1.10,2013-07-26 02:55:00,
2013-07-25 23:10:00,60.3,60.0,30.02,NNE,26,0.0,-999.0,98,-99.99,,,0.25,weatherlink.com 1.10,2013-07-26 03:10:00,
2013-07-25 23:25:00,60.4,60.0,30.02,WNW,300,0.0,-999.0,98,-99.99,,,0.25,weatherlink.com 1.10,2013-07-26 03:25:00,
2013-07-25 23:40:00,60.4,60.0,30.01,NE,40,0.0,-999.0,98,-99.99,,,0.25,weatherlink.com 1.10,2013-07-26 03:40:00,
2013-07-25 23:55:00,60.4,60.0,30.01,NNE,31,0.0,-999.0,98,-99.99,,,0.25,weatherlink.com 1.10,2013-07-26 03:55:00,